Location: Unspecified
(42.2600°N, 0.0000°E)
Time: 21:54:10
(UTC+00:00)

ISS - Pass Details

Date: 25 May 2019
Orbit: 408 x 419 km, 51.6° (Epoch: 21 June)

Event Time Altitude Azimuth Distance (km) Brightness Sun altitude
Rises 21:19:00 0° 298° (WNW) 2,356 1.3 -17.0°
Reaches altitude 10° 21:21:40 10° 320° (NW) 1,495 0.4 -17.3°
Maximum altitude 21:23:53 16° 2° (N) 1,170 -0.9 -17.5°
Drops below altitude 10° 21:26:07 10° 43° (NE) 1,500 -0.8 -17.8°
Enters shadow 21:28:13 - 63° (ENE) 2,158 -0.2 -18.0°
